sat.trackr.live / text

‹ back to catalog

HAWK-7A

NORAD 56191 · 2023-054P

PAYLOAD ACTIVE UNKNOWN

§ Identity

Operator
Country
US
Launch date
2023-04-15
Launch site
AFWTR
Launch vehicle
Mass (kg)
RCS (m²)

Purposes: tech_demo

External: N2YO · Heavens-Above · Gunter

§ Orbital elements

Epoch: 2026-05-25T02:42:20.156256Z

Period
94.30 min
Inclination
97.2731°
Eccentricity
0.0004856
Mean motion
15.27075340 rev/d
Perigee alt
481.2 km
Apogee alt
487.9 km
Semi-major
6,862.7 km
B*
5.4731e-5
RAAN
33.0370°
Arg perigee
106.3957°
Mean anomaly
253.7816°
Rev number
17,350

§ Raw data

HAWK-7A1 56191U 23054P   26145.11273329  .00001383  00000+0  54731-4 0  99902 56191  97.2731  33.0370 0004856 106.3957 253.7816 15.27075340173505

JSON: /api/v1/satellites/56191 · /tle

For live sub-satellite position, see the globe view (requires WebGL).

§ Visibility from observer

Set your observer location to see the next 7 days of passes ≥ 10°. The values pass through the URL so the page stays shareable.

No JS? Fill the form by hand. The geolocation button needs JavaScript.